Time,TemperatureF,DewpointF,PressureIn,WindDirection,WindDirectionDegrees,WindSpeedMPH,WindSpeedGustMPH,Humidity,HourlyPrecipIn,Conditions,Clouds,dailyrainin,SoftwareType,DateUTC
2013-11-28 00:01:00,20.7,19.0,30.11,WNW,293,10.0,13.0,93,0.00,,---,0.00,VWS V13.01,2013-11-28 05:01:00,
2013-11-28 00:02:00,20.7,19.0,30.11,West,273,7.0,13.0,93,0.00,,---,0.00,VWS V13.01,2013-11-28 05:02:00,
2013-11-28 00:03:00,20.7,19.0,30.11,West,273,6.0,13.0,93,0.00,,---,0.00,VWS V13.01,2013-11-28 05:03:00,
2013-11-28 00:06:00,20.7,19.2,30.11,West,276,2.0,13.0,94,0.00,,---,0.00,VWS V13.01,2013-11-28 05:06:00,
2013-11-28 00:09:00,20.8,19.4,30.12,West,276,4.0,13.0,94,0.00,,---,0.00,VWS V13.01,2013-11-28 05:09:00,
2013-11-28 00:14:00,20.7,19.2,30.12,West,276,5.0,13.0,94,0.00,,---,0.00,VWS V13.01,2013-11-28 05:14:00,
2013-11-28 00:20:00,20.7,19.2,30.12,West,276,4.0,13.0,94,0.00,,---,0.00,VWS V13.01,2013-11-28 05:20:00,
2013-11-28 00:25:00,20.7,19.2,30.12,West,276,0.0,13.0,94,0.00,,---,0.00,VWS V13.01,2013-11-28 05:25:00,
2013-11-28 00:30:00,20.6,19.1,30.13,West,275,5.0,6.0,94,0.00,,---,0.00,VWS V13.01,2013-11-28 05:30:00,
2013-11-28 00:35:00,20.6,19.1,30.13,West,276,2.0,6.0,94,0.00,,---,0.00,VWS V13.01,2013-11-28 05:35:00,
2013-11-28 00:40:00,20.6,19.1,30.13,West,276,2.0,6.0,94,0.00,,---,0.00,VWS V13.01,2013-11-28 05:40:00,
2013-11-28 00:45:00,20.5,19.0,30.14,West,276,4.0,8.0,94,0.00,,---,0.00,VWS V13.01,2013-11-28 05:45:00,
2013-11-28 00:50:00,20.5,19.0,30.14,West,268,6.0,11.0,94,0.00,,---,0.00,VWS V13.01,2013-11-28 05:50:00,
2013-11-28 00:55:00,20.4,19.0,30.14,West,268,6.0,11.0,94,0.00,,---,0.00,VWS V13.01,2013-11-28 05:55:00,
2013-11-28 01:00:00,20.4,19.0,30.14,West,268,4.0,6.0,94,0.00,,---,0.00,VWS V13.01,2013-11-28 06:00:00,
2013-11-28 01:05:00,20.4,19.0,30.14,West,268,5.0,6.0,94,0.00,,---,0.00,VWS V13.01,2013-11-28 06:05:00,
2013-11-28 01:10:00,20.4,19.0,30.14,West,268,5.0,7.0,94,0.00,,---,0.00,VWS V13.01,2013-11-28 06:10:00,
2013-11-28 01:15:00,20.4,19.0,30.15,West,276,4.0,9.0,94,0.00,,---,0.00,VWS V13.01,2013-11-28 06:15:00,
2013-11-28 01:20:00,20.4,19.0,30.15,West,276,2.0,9.0,94,0.00,,---,0.00,VWS V13.01,2013-11-28 06:20:00,
2013-11-28 01:25:00,20.4,19.0,30.15,West,275,4.0,9.0,94,0.00,,---,0.00,VWS V13.01,2013-11-28 06:25:00,
2013-11-28 01:30:00,20.4,19.0,30.16,West,275,5.0,7.0,94,0.00,,---,0.00,VWS V13.01,2013-11-28 06:30:00,
2013-11-28 01:36:00,20.4,19.0,30.16,West,274,5.0,7.0,94,0.00,,---,0.00,VWS V13.01,2013-11-28 06:36:00,
2013-11-28 01:41:00,20.4,19.0,30.16,West,269,7.0,9.0,94,0.00,,---,0.00,VWS V13.01,2013-11-28 06:41:00,
2013-11-28 01:46:00,20.3,18.9,30.17,West,269,6.0,9.0,94,0.00,,---,0.00,VWS V13.01,2013-11-28 06:46:00,
2013-11-28 01:51:00,20.4,19.0,30.17,West,268,5.0,9.0,94,0.00,,---,0.00,VWS V13.01,2013-11-28 06:51:00,
2013-11-28 01:56:00,20.3,18.9,30.18,West,269,5.0,9.0,94,0.00,,---,0.00,VWS V13.01,2013-11-28 06:56:00,
2013-11-28 02:01:00,20.3,18.9,30.18,West,269,5.0,6.0,94,0.00,,---,0.00,VWS V13.01,2013-11-28 07:01:00,
2013-11-28 02:06:00,20.3,18.9,30.18,West,269,5.0,7.0,94,0.00,,---,0.00,VWS V13.01,2013-11-28 07:06:00,
2013-11-28 02:11:00,20.2,18.8,30.19,West,267,8.0,9.0,94,0.00,,---,0.00,VWS V13.01,2013-11-28 07:11:00,
2013-11-28 02:16:00,20.3,18.9,30.20,West,263,7.0,9.0,94,0.00,,---,0.00,VWS V13.01,2013-11-28 07:16:00,
2013-11-28 02:21:00,20.3,18.9,30.20,West,263,7.0,9.0,94,0.00,,---,0.00,VWS V13.01,2013-11-28 07:21:00,
2013-11-28 02:26:00,20.3,18.9,30.21,West,260,5.0,10.0,94,0.00,,---,0.00,VWS V13.01,2013-11-28 07:26:00,
2013-11-28 02:31:00,20.3,18.9,30.21,West,260,4.0,5.0,94,0.00,,---,0.00,VWS V13.01,2013-11-28 07:31:00,
2013-11-28 02:36:00,20.3,18.9,30.22,West,260,1.0,5.0,94,0.00,,---,0.00,VWS V13.01,2013-11-28 07:36:00,
2013-11-28 02:41:00,20.3,18.9,30.22,West,260,2.0,5.0,94,0.00,,---,0.00,VWS V13.01,2013-11-28 07:41:00,
2013-11-28 02:46:00,20.3,18.9,30.22,West,261,2.0,7.0,94,0.00,,---,0.00,VWS V13.01,2013-11-28 07:46:00,
2013-11-28 02:52:00,20.3,18.9,30.23,West,261,1.0,7.0,94,0.00,,---,0.00,VWS V13.01,2013-11-28 07:52:00,
2013-11-28 02:57:00,20.3,18.9,30.23,West,262,2.0,7.0,94,0.00,,---,0.00,VWS V13.01,2013-11-28 07:57:00,
2013-11-28 03:02:00,20.3,18.9,30.24,West,262,2.0,4.0,94,0.00,,---,0.00,VWS V13.01,2013-11-28 08:02:00,
2013-11-28 03:07:00,20.3,18.9,30.24,West,261,0.0,4.0,94,0.00,,---,0.00,VWS V13.01,2013-11-28 08:07:00,
2013-11-28 03:12:00,20.2,18.8,30.25,West,262,0.0,4.0,94,0.00,,---,0.00,VWS V13.01,2013-11-28 08:12:00,
2013-11-28 03:17:00,20.3,18.9,30.25,West,261,1.0,4.0,94,0.00,,---,0.00,VWS V13.01,2013-11-28 08:17:00,
2013-11-28 03:22:00,20.3,18.9,30.25,West,262,2.0,5.0,94,0.00,,---,0.00,VWS V13.01,2013-11-28 08:22:00,
2013-11-28 03:27:00,20.3,18.9,30.25,West,261,2.0,5.0,94,0.00,,---,0.00,VWS V13.01,2013-11-28 08:27:00,
2013-11-28 03:32:00,20.3,18.9,30.25,West,262,3.0,5.0,94,0.00,,---,0.00,VWS V13.01,2013-11-28 08:32:00,
2013-11-28 03:37:00,20.3,18.9,30.26,West,262,4.0,6.0,94,0.00,,---,0.00,VWS V13.01,2013-11-28 08:37:00,
2013-11-28 03:42:00,20.3,18.9,30.25,West,261,3.0,6.0,94,0.00,,---,0.00,VWS V13.01,2013-11-28 08:42:00,
2013-11-28 03:47:00,20.3,18.9,30.26,West,262,2.0,6.0,94,0.00,,---,0.00,VWS V13.01,2013-11-28 08:47:00,
2013-11-28 03:52:00,20.2,18.8,30.26,West,262,3.0,6.0,94,0.00,,---,0.00,VWS V13.01,2013-11-28 08:52:00,
2013-11-28 03:57:00,20.2,18.8,30.27,West,262,5.0,7.0,94,0.00,,---,0.00,VWS V13.01,2013-11-28 08:57:00,
2013-11-28 04:02:00,20.2,18.8,30.27,West,262,6.0,6.0,94,0.00,,---,0.00,VWS V13.01,2013-11-28 09:02:00,
2013-11-28 04:07:00,20.3,18.9,30.27,West,261,2.0,6.0,94,0.00,,---,0.00,VWS V13.01,2013-11-28 09:07:00,
2013-11-28 04:12:00,20.3,18.9,30.27,West,262,4.0,6.0,94,0.00,,---,0.00,VWS V13.01,2013-11-28 09:12:00,
2013-11-28 04:18:00,20.3,18.9,30.28,West,261,2.0,6.0,94,0.00,,---,0.00,VWS V13.01,2013-11-28 09:18:00,
2013-11-28 04:23:00,20.3,18.9,30.28,West,261,2.0,6.0,94,0.00,,---,0.00,VWS V13.01,2013-11-28 09:23:00,
2013-11-28 04:28:00,20.3,18.9,30.29,West,261,1.0,6.0,94,0.00,,---,0.00,VWS V13.01,2013-11-28 09:28:00,
2013-11-28 04:33:00,20.3,18.9,30.30,West,262,5.0,5.0,94,0.00,,---,0.00,VWS V13.01,2013-11-28 09:33:00,
2013-11-28 04:38:00,20.3,18.9,30.30,West,262,6.0,6.0,94,0.00,,---,0.00,VWS V13.01,2013-11-28 09:38:00,
2013-11-28 04:43:00,20.3,18.9,30.30,West,262,1.0,6.0,94,0.00,,---,0.00,VWS V13.01,2013-11-28 09:43:00,
2013-11-28 04:48:00,20.3,18.9,30.31,West,261,4.0,6.0,94,0.00,,---,0.00,VWS V13.01,2013-11-28 09:48:00,
2013-11-28 04:53:00,20.3,18.9,30.31,West,262,2.0,6.0,94,0.00,,---,0.00,VWS V13.01,2013-11-28 09:53:00,
2013-11-28 04:58:00,20.2,18.8,30.31,West,262,2.0,6.0,94,0.00,,---,0.00,VWS V13.01,2013-11-28 09:58:00,
2013-11-28 05:03:00,20.2,18.8,30.31,West,262,1.0,4.0,94,0.00,,---,0.00,VWS V13.01,2013-11-28 10:03:00,
2013-11-28 05:08:00,20.2,18.8,30.31,West,262,0.0,4.0,94,0.00,,---,0.00,VWS V13.01,2013-11-28 10:08:00,
2013-11-28 05:13:00,20.2,18.8,30.32,West,262,0.0,4.0,94,0.00,,---,0.00,VWS V13.01,2013-11-28 10:13:00,
2013-11-28 05:18:00,20.1,18.6,30.32,West,261,0.0,4.0,94,0.00,,---,0.00,VWS V13.01,2013-11-28 10:18:00,
2013-11-28 05:23:00,20.1,18.6,30.33,West,262,0.0,4.0,94,0.00,,---,0.00,VWS V13.01,2013-11-28 10:23:00,
2013-11-28 05:28:00,20.1,18.6,30.33,West,261,2.0,4.0,94,0.00,,---,0.00,VWS V13.01,2013-11-28 10:28:00,
2013-11-28 05:33:00,20.0,18.5,30.33,West,262,2.0,4.0,94,0.00,,---,0.00,VWS V13.01,2013-11-28 10:33:00,
2013-11-28 05:39:00,19.9,18.5,30.33,West,261,4.0,6.0,94,0.00,,---,0.00,VWS V13.01,2013-11-28 10:39:00,
2013-11-28 05:44:00,19.8,18.4,30.34,West,261,4.0,6.0,94,0.00,,---,0.00,VWS V13.01,2013-11-28 10:44:00,
2013-11-28 05:49:00,19.7,18.3,30.34,West,262,2.0,6.0,94,0.00,,---,0.00,VWS V13.01,2013-11-28 10:49:00,
2013-11-28 05:54:00,19.7,18.3,30.34,West,261,2.0,6.0,94,0.00,,---,0.00,VWS V13.01,2013-11-28 10:54:00,
2013-11-28 05:59:00,19.7,18.3,30.35,West,262,2.0,6.0,94,0.00,,---,0.00,VWS V13.01,2013-11-28 10:59:00,
2013-11-28 06:04:00,19.7,18.3,30.35,West,261,0.0,3.0,94,0.00,,---,0.00,VWS V13.01,2013-11-28 11:04:00,
2013-11-28 06:09:00,19.6,18.2,30.35,West,262,2.0,3.0,94,0.00,,---,0.00,VWS V13.01,2013-11-28 11:09:00,
2013-11-28 06:14:00,19.5,18.1,30.35,West,262,0.0,3.0,94,0.00,,---,0.00,VWS V13.01,2013-11-28 11:14:00,
2013-11-28 06:19:00,19.5,18.1,30.36,West,261,0.0,3.0,94,0.00,,---,0.00,VWS V13.01,2013-11-28 11:19:00,
2013-11-28 06:24:00,19.5,18.1,30.37,West,262,4.0,4.0,94,0.00,,---,0.00,VWS V13.01,2013-11-28 11:24:00,
2013-11-28 06:29:00,19.5,18.1,30.36,West,261,2.0,5.0,94,0.00,,---,0.00,VWS V13.01,2013-11-28 11:29:00,
2013-11-28 06:34:00,19.5,18.1,30.37,West,261,0.0,1.0,94,0.00,,---,0.00,VWS V13.01,2013-11-28 11:34:00,
2013-11-28 06:39:00,19.4,18.0,30.36,West,262,0.0,1.0,94,0.00,,---,0.00,VWS V13.01,2013-11-28 11:39:00,
2013-11-28 06:44:00,19.4,18.0,30.37,West,262,0.0,1.0,94,0.00,,---,0.00,VWS V13.01,2013-11-28 11:44:00,
2013-11-28 06:49:00,19.4,18.0,30.37,West,262,0.0,1.0,94,0.00,,---,0.00,VWS V13.01,2013-11-28 11:49:00,
2013-11-28 06:54:00,19.4,18.0,30.37,West,262,0.0,1.0,94,0.00,,---,0.00,VWS V13.01,2013-11-28 11:54:00,
2013-11-28 06:59:00,19.3,17.9,30.38,West,261,0.0,1.0,94,0.00,,---,0.00,VWS V13.01,2013-11-28 11:59:00,
2013-11-28 07:05:00,19.3,17.9,30.38,West,262,0.0,0.0,94,0.00,,---,0.00,VWS V13.01,2013-11-28 12:05:00,
2013-11-28 07:10:00,19.3,17.9,30.39,West,262,0.0,0.0,94,0.00,,---,0.00,VWS V13.01,2013-11-28 12:10:00,
2013-11-28 07:15:00,19.2,17.8,30.39,West,262,0.0,0.0,94,0.00,,---,0.00,VWS V13.01,2013-11-28 12:15:00,
2013-11-28 07:20:00,19.1,17.7,30.39,West,262,0.0,0.0,94,0.00,,---,0.00,VWS V13.01,2013-11-28 12:20:00,
2013-11-28 07:25:00,19.1,17.7,30.40,West,262,0.0,0.0,94,0.00,,---,0.00,VWS V13.01,2013-11-28 12:25:00,
2013-11-28 07:30:00,19.1,17.7,30.40,West,262,0.0,0.0,94,0.00,,---,0.00,VWS V13.01,2013-11-28 12:30:00,
2013-11-28 07:35:00,19.1,17.7,30.40,West,261,0.0,0.0,94,0.00,,---,0.00,VWS V13.01,2013-11-28 12:35:00,
2013-11-28 07:40:00,19.1,17.7,30.40,West,261,0.0,0.0,94,0.00,,---,0.00,VWS V13.01,2013-11-28 12:40:00,
2013-11-28 07:45:00,19.0,17.6,30.41,West,262,0.0,0.0,94,0.00,,---,0.00,VWS V13.01,2013-11-28 12:45:00,
2013-11-28 07:50:00,19.1,17.7,30.41,West,262,0.0,0.0,94,0.00,,---,0.00,VWS V13.01,2013-11-28 12:50:00,
2013-11-28 07:55:00,19.1,17.7,30.41,West,261,0.0,0.0,94,0.00,,---,0.00,VWS V13.01,2013-11-28 12:55:00,
2013-11-28 08:01:00,19.3,17.9,30.42,West,261,0.0,0.0,94,0.00,,---,0.00,VWS V13.01,2013-11-28 13:01:00,
2013-11-28 08:06:00,19.4,18.0,30.43,West,262,0.0,0.0,94,0.00,,---,0.00,VWS V13.01,2013-11-28 13:06:00,
2013-11-28 08:11:00,19.5,18.1,30.43,West,262,0.0,0.0,94,0.00,,---,0.00,VWS V13.01,2013-11-28 13:11:00,
2013-11-28 08:16:00,19.7,18.3,30.43,West,262,0.0,0.0,94,0.00,,---,0.00,VWS V13.01,2013-11-28 13:16:00,
2013-11-28 08:21:00,19.7,18.3,30.43,West,261,0.0,0.0,94,0.00,,---,0.00,VWS V13.01,2013-11-28 13:21:00,
2013-11-28 08:26:00,19.8,18.4,30.43,West,261,0.0,0.0,94,0.00,,---,0.00,VWS V13.01,2013-11-28 13:26:00,
2013-11-28 08:31:00,20.0,18.5,30.43,West,261,4.0,6.0,94,0.00,,---,0.00,VWS V13.01,2013-11-28 13:31:00,
2013-11-28 08:36:00,20.1,18.6,30.43,West,262,4.0,6.0,94,0.00,,---,0.00,VWS V13.01,2013-11-28 13:36:00,
2013-11-28 08:41:00,20.3,18.9,30.43,West,262,4.0,6.0,94,0.00,,---,0.00,VWS V13.01,2013-11-28 13:41:00,
2013-11-28 08:47:00,20.4,19.0,30.43,West,261,4.0,6.0,94,0.00,,---,0.00,VWS V13.01,2013-11-28 13:47:00,
2013-11-28 08:52:00,20.5,19.0,30.44,West,261,5.0,6.0,94,0.00,,---,0.00,VWS V13.01,2013-11-28 13:52:00,
2013-11-28 08:57:00,20.6,19.1,30.44,West,262,2.0,6.0,94,0.00,,---,0.00,VWS V13.01,2013-11-28 13:57:00,
2013-11-28 09:02:00,20.6,19.1,30.45,West,261,9.0,10.0,94,0.00,,---,0.00,VWS V13.01,2013-11-28 14:02:00,
2013-11-28 09:07:00,20.7,19.2,30.45,West,261,7.0,10.0,94,0.00,,---,0.00,VWS V13.01,2013-11-28 14:07:00,
2013-11-28 09:12:00,20.7,19.2,30.45,WSW,254,6.0,10.0,94,0.00,,---,0.00,VWS V13.01,2013-11-28 14:12:00,
2013-11-28 09:17:00,20.8,19.4,30.46,West,259,7.0,11.0,94,0.00,,---,0.00,VWS V13.01,2013-11-28 14:17:00,
2013-11-28 09:22:00,20.7,19.2,30.46,WSW,250,7.0,12.0,94,0.00,,---,0.00,VWS V13.01,2013-11-28 14:22:00,
2013-11-28 09:27:00,20.7,19.2,30.46,West,275,5.0,12.0,94,0.00,,---,0.00,VWS V13.01,2013-11-28 14:27:00,
2013-11-28 09:32:00,20.7,19.2,30.46,WSW,248,7.0,11.0,94,0.00,,---,0.00,VWS V13.01,2013-11-28 14:32:00,
2013-11-28 09:37:00,20.6,19.1,30.47,WSW,237,7.0,11.0,94,0.00,,---,0.00,VWS V13.01,2013-11-28 14:37:00,
2013-11-28 09:42:00,20.7,19.2,30.46,WSW,256,9.0,12.0,94,0.00,,---,0.00,VWS V13.01,2013-11-28 14:42:00,
2013-11-28 09:47:00,20.7,19.0,30.47,WSW,237,8.0,12.0,93,0.00,,---,0.00,VWS V13.01,2013-11-28 14:47:00,
2013-11-28 09:52:00,20.8,19.1,30.46,WSW,246,5.0,12.0,93,0.00,,---,0.00,VWS V13.01,2013-11-28 14:52:00,
2013-11-28 09:57:00,20.8,19.1,30.47,WSW,249,7.0,12.0,93,0.00,,---,0.00,VWS V13.01,2013-11-28 14:57:00,
2013-11-28 10:02:00,20.7,19.0,30.47,WSW,256,7.0,8.0,93,0.00,,---,0.00,VWS V13.01,2013-11-28 15:02:00,
2013-11-28 10:08:00,20.7,19.0,30.48,WSW,248,5.0,9.0,93,0.00,,---,0.00,VWS V13.01,2013-11-28 15:08:00,
2013-11-28 10:13:00,20.9,19.2,30.48,West,261,6.0,10.0,93,0.00,,---,0.00,VWS V13.01,2013-11-28 15:13:00,
2013-11-28 10:18:00,20.9,19.2,30.48,West,269,6.0,12.0,93,0.00,,---,0.00,VWS V13.01,2013-11-28 15:18:00,
2013-11-28 10:23:00,21.0,19.3,30.48,West,265,9.0,12.0,93,0.00,,---,0.00,VWS V13.01,2013-11-28 15:23:00,
2013-11-28 10:28:00,21.0,19.3,30.48,West,263,8.0,13.0,93,0.00,,---,0.00,VWS V13.01,2013-11-28 15:28:00,
2013-11-28 10:33:00,21.1,19.4,30.48,West,276,10.0,13.0,93,0.00,,---,0.00,VWS V13.01,2013-11-28 15:33:00,
2013-11-28 10:38:00,21.1,19.1,30.49,WSW,248,9.0,13.0,92,0.00,,---,0.00,VWS V13.01,2013-11-28 15:38:00,
2013-11-28 10:43:00,21.1,19.1,30.49,West,260,11.0,13.0,92,0.00,,---,0.00,VWS V13.01,2013-11-28 15:43:00,
2013-11-28 10:48:00,21.1,19.1,30.49,WSW,251,11.0,13.0,92,0.00,,---,0.00,VWS V13.01,2013-11-28 15:48:00,
2013-11-28 10:53:00,21.1,19.1,30.49,WSW,252,9.0,14.0,92,0.00,,---,0.00,VWS V13.01,2013-11-28 15:53:00,
2013-11-28 10:58:00,21.0,19.0,30.49,West,268,9.0,14.0,92,0.00,,---,0.00,VWS V13.01,2013-11-28 15:58:00,
2013-11-28 11:03:00,20.8,18.9,30.49,West,268,7.0,12.0,92,0.00,,---,0.00,VWS V13.01,2013-11-28 16:03:00,
2013-11-28 11:08:00,21.1,19.1,30.49,West,264,8.0,12.0,92,0.00,,---,0.00,VWS V13.01,2013-11-28 16:08:00,
2013-11-28 11:13:00,21.4,19.2,30.49,WSW,252,8.0,14.0,91,0.00,,---,0.00,VWS V13.01,2013-11-28 16:13:00,
2013-11-28 11:18:00,21.8,19.6,30.49,WSW,251,10.0,14.0,91,0.00,,---,0.00,VWS V13.01,2013-11-28 16:18:00,
2013-11-28 11:23:00,21.8,19.1,30.49,West,263,8.0,18.0,89,0.00,,---,0.00,VWS V13.01,2013-11-28 16:23:00,
2013-11-28 11:28:00,22.0,19.3,30.48,WSW,250,7.0,18.0,89,0.00,,---,0.00,VWS V13.01,2013-11-28 16:28:00,
2013-11-28 11:33:00,22.1,19.1,30.48,WSW,254,9.0,14.0,88,0.00,,---,0.00,VWS V13.01,2013-11-28 16:33:00,
2013-11-28 11:39:00,22.4,19.1,30.48,West,259,10.0,15.0,87,0.00,,---,0.00,VWS V13.01,2013-11-28 16:39:00,
2013-11-28 11:44:00,22.9,19.4,30.48,WSW,252,10.0,15.0,86,0.00,,---,0.00,VWS V13.01,2013-11-28 16:44:00,
2013-11-28 11:49:00,23.0,19.2,30.48,West,271,5.0,15.0,85,0.00,,---,0.00,VWS V13.01,2013-11-28 16:49:00,
2013-11-28 11:54:00,22.8,18.7,30.48,WSW,247,9.0,15.0,84,0.00,,---,0.00,VWS V13.01,2013-11-28 16:54:00,
2013-11-28 11:59:00,22.9,18.8,30.48,WSW,252,7.0,15.0,84,0.00,,---,0.00,VWS V13.01,2013-11-28 16:59:00,
2013-11-28 12:04:00,23.1,18.7,30.48,WSW,250,5.0,9.0,83,0.00,,---,0.00,VWS V13.01,2013-11-28 17:04:00,
2013-11-28 12:09:00,23.3,18.3,30.48,WSW,248,5.0,11.0,81,0.00,,---,0.00,VWS V13.01,2013-11-28 17:09:00,
2013-11-28 16:05:00,24.3,16.6,30.49,WSW,253,5.0,8.0,72,0.00,,---,0.00,VWS V13.01,2013-11-28 21:05:00,
2013-11-28 16:10:00,24.3,16.6,30.49,WSW,253,4.0,8.0,72,0.00,,---,0.00,VWS V13.01,2013-11-28 21:10:00,
2013-11-28 16:15:00,24.1,16.4,30.49,WSW,253,5.0,8.0,72,0.00,,---,0.00,VWS V13.01,2013-11-28 21:15:00,
2013-11-28 16:20:00,24.0,16.6,30.49,WSW,253,2.0,8.0,73,0.00,,---,0.00,VWS V13.01,2013-11-28 21:20:00,
2013-11-28 16:25:00,23.9,16.8,30.49,WSW,253,5.0,8.0,74,0.00,,---,0.00,VWS V13.01,2013-11-28 21:25:00,
2013-11-28 16:30:00,23.9,17.1,30.49,WSW,253,6.0,7.0,75,0.00,,---,0.00,VWS V13.01,2013-11-28 21:30:00,
2013-11-28 16:35:00,23.9,17.1,30.50,WSW,253,4.0,7.0,75,0.00,,---,0.00,VWS V13.01,2013-11-28 21:35:00,
2013-11-28 16:40:00,23.9,17.1,30.50,WSW,253,2.0,7.0,75,0.00,,---,0.00,VWS V13.01,2013-11-28 21:40:00,
2013-11-28 16:46:00,23.5,17.4,30.50,WSW,253,5.0,7.0,77,0.00,,---,0.00,VWS V13.01,2013-11-28 21:46:00,
2013-11-28 16:51:00,23.6,17.2,30.50,WSW,253,4.0,7.0,76,0.00,,---,0.00,VWS V13.01,2013-11-28 21:51:00,
2013-11-28 16:56:00,23.4,18.1,30.50,WSW,253,1.0,7.0,80,0.00,,---,0.00,VWS V13.01,2013-11-28 21:56:00,
2013-11-28 17:01:00,23.2,18.0,30.50,WSW,253,4.0,4.0,80,0.00,,---,0.00,VWS V13.01,2013-11-28 22:01:00,
2013-11-28 17:06:00,23.2,18.0,30.50,WSW,253,2.0,7.0,80,0.00,,---,0.00,VWS V13.01,2013-11-28 22:06:00,
2013-11-28 17:11:00,23.1,18.1,30.51,WSW,253,0.0,7.0,81,0.00,,---,0.00,VWS V13.01,2013-11-28 22:11:00,
2013-11-28 17:16:00,23.0,18.6,30.51,WSW,253,0.0,7.0,83,0.00,,---,0.00,VWS V13.01,2013-11-28 22:16:00,
2013-11-28 17:21:00,22.8,18.7,30.51,WSW,253,0.0,7.0,84,0.00,,---,0.00,VWS V13.01,2013-11-28 22:21:00,
2013-11-28 17:26:00,22.6,18.5,30.52,WSW,253,0.0,7.0,84,0.00,,---,0.00,VWS V13.01,2013-11-28 22:26:00,
2013-11-28 17:31:00,22.5,18.1,30.52,WSW,253,0.0,0.0,83,0.00,,---,0.00,VWS V13.01,2013-11-28 22:31:00,
2013-11-28 17:36:00,22.4,18.3,30.53,WSW,253,0.0,4.0,84,0.00,,---,0.00,VWS V13.01,2013-11-28 22:36:00,
2013-11-28 17:41:00,22.4,18.3,30.53,WSW,253,0.0,4.0,84,0.00,,---,0.00,VWS V13.01,2013-11-28 22:41:00,
2013-11-28 17:46:00,22.4,18.3,30.53,WSW,253,2.0,4.0,84,0.00,,---,0.00,VWS V13.01,2013-11-28 22:46:00,
2013-11-28 17:51:00,22.4,18.0,30.54,WSW,252,2.0,8.0,83,0.00,,---,0.00,VWS V13.01,2013-11-28 22:51:00,
2013-11-28 17:56:00,22.5,18.1,30.54,WSW,252,0.0,8.0,83,0.00,,---,0.00,VWS V13.01,2013-11-28 22:56:00,
2013-11-28 18:01:00,22.4,17.8,30.54,WSW,252,0.0,3.0,82,0.00,,---,0.00,VWS V13.01,2013-11-28 23:01:00,
2013-11-28 18:06:00,22.2,17.8,30.54,WSW,252,0.0,3.0,83,0.00,,---,0.00,VWS V13.01,2013-11-28 23:06:00,
2013-11-28 18:12:00,22.4,17.8,30.54,WSW,252,2.0,4.0,82,0.00,,---,0.00,VWS V13.01,2013-11-28 23:12:00,
2013-11-28 18:17:00,22.6,17.9,30.55,WSW,252,2.0,4.0,82,0.00,,---,0.00,VWS V13.01,2013-11-28 23:17:00,
2013-11-28 18:22:00,22.6,17.9,30.55,WSW,252,0.0,4.0,82,0.00,,---,0.00,VWS V13.01,2013-11-28 23:22:00,
2013-11-28 18:27:00,22.5,17.9,30.55,WSW,252,2.0,6.0,82,0.00,,---,0.00,VWS V13.01,2013-11-28 23:27:00,
2013-11-28 18:32:00,22.6,17.9,30.55,WSW,252,0.0,2.0,82,0.00,,---,0.00,VWS V13.01,2013-11-28 23:32:00,
2013-11-28 18:37:00,22.4,17.8,30.56,WSW,252,2.0,4.0,82,0.00,,---,0.00,VWS V13.01,2013-11-28 23:37:00,
2013-11-28 18:42:00,22.4,18.0,30.56,WSW,252,2.0,4.0,83,0.00,,---,0.00,VWS V13.01,2013-11-28 23:42:00,
2013-11-28 18:47:00,22.5,17.9,30.56,WSW,252,0.0,4.0,82,0.00,,---,0.00,VWS V13.01,2013-11-28 23:47:00,
2013-11-28 18:52:00,22.4,17.8,30.56,WSW,252,0.0,4.0,82,0.00,,---,0.00,VWS V13.01,2013-11-28 23:52:00,
2013-11-28 18:57:00,22.4,18.0,30.56,WSW,252,0.0,4.0,83,0.00,,---,0.00,VWS V13.01,2013-11-28 23:57:00,
2013-11-28 19:02:00,22.3,17.9,30.56,WSW,252,0.0,0.0,83,0.00,,---,0.00,VWS V13.01,2013-11-29 00:02:00,
2013-11-28 19:07:00,22.0,17.6,30.56,WSW,252,0.0,0.0,83,0.00,,---,0.00,VWS V13.01,2013-11-29 00:07:00,
2013-11-28 19:12:00,21.9,17.5,30.56,WSW,252,0.0,2.0,83,0.00,,---,0.00,VWS V13.01,2013-11-29 00:12:00,
2013-11-28 19:17:00,21.8,17.4,30.56,WSW,252,0.0,2.0,83,0.00,,---,0.00,VWS V13.01,2013-11-29 00:17:00,
2013-11-28 19:22:00,21.8,17.4,30.57,WSW,252,0.0,2.0,83,0.00,,---,0.00,VWS V13.01,2013-11-29 00:22:00,
2013-11-28 19:27:00,21.7,17.6,30.57,WSW,252,0.0,2.0,84,0.00,,---,0.00,VWS V13.01,2013-11-29 00:27:00,
2013-11-28 19:33:00,21.5,17.4,30.57,WSW,252,0.0,0.0,84,0.00,,---,0.00,VWS V13.01,2013-11-29 00:33:00,
2013-11-28 19:38:00,21.3,17.5,30.57,WSW,252,0.0,0.0,85,0.00,,---,0.00,VWS V13.01,2013-11-29 00:38:00,
2013-11-28 19:43:00,21.1,17.3,30.57,WSW,252,0.0,0.0,85,0.00,,---,0.00,VWS V13.01,2013-11-29 00:43:00,
2013-11-28 19:48:00,20.7,17.2,30.57,WSW,252,0.0,0.0,86,0.00,,---,0.00,VWS V13.01,2013-11-29 00:48:00,
2013-11-28 19:53:00,20.6,17.1,30.57,WSW,252,0.0,0.0,86,0.00,,---,0.00,VWS V13.01,2013-11-29 00:53:00,
2013-11-28 19:58:00,20.4,17.2,30.57,WSW,252,0.0,0.0,87,0.00,,---,0.00,VWS V13.01,2013-11-29 00:58:00,
2013-11-28 20:03:00,20.2,17.0,30.57,WSW,252,0.0,0.0,87,0.00,,---,0.00,VWS V13.01,2013-11-29 01:03:00,
2013-11-28 20:08:00,20.1,17.1,30.57,WSW,252,0.0,0.0,88,0.00,,---,0.00,VWS V13.01,2013-11-29 01:08:00,
2013-11-28 20:13:00,19.9,16.9,30.57,WSW,252,0.0,0.0,88,0.00,,---,0.00,VWS V13.01,2013-11-29 01:13:00,
2013-11-28 20:18:00,19.8,16.8,30.57,WSW,252,0.0,0.0,88,0.00,,---,0.00,VWS V13.01,2013-11-29 01:18:00,
2013-11-28 20:23:00,19.7,17.0,30.57,WSW,252,0.0,0.0,89,0.00,,---,0.00,VWS V13.01,2013-11-29 01:23:00,
2013-11-28 20:28:00,19.6,16.9,30.58,WSW,252,0.0,0.0,89,0.00,,---,0.00,VWS V13.01,2013-11-29 01:28:00,
2013-11-28 20:34:00,19.2,16.2,30.58,WSW,252,0.0,0.0,88,0.00,,---,0.00,VWS V13.01,2013-11-29 01:34:00,
2013-11-28 20:39:00,19.0,16.3,30.58,WSW,252,0.0,0.0,89,0.00,,---,0.00,VWS V13.01,2013-11-29 01:39:00,
2013-11-28 20:44:00,18.8,16.1,30.58,WSW,252,0.0,0.0,89,0.00,,---,0.00,VWS V13.01,2013-11-29 01:44:00,
2013-11-28 20:49:00,18.5,15.8,30.58,WSW,252,0.0,0.0,89,0.00,,---,0.00,VWS V13.01,2013-11-29 01:49:00,
2013-11-28 20:54:00,18.3,15.6,30.58,WSW,252,0.0,0.0,89,0.00,,---,0.00,VWS V13.01,2013-11-29 01:54:00,
2013-11-28 20:59:00,18.3,15.9,30.58,WSW,252,0.0,0.0,90,0.00,,---,0.00,VWS V13.01,2013-11-29 01:59:00,
2013-11-28 21:04:00,18.2,15.8,30.58,WSW,252,0.0,0.0,90,0.00,,---,0.00,VWS V13.01,2013-11-29 02:04:00,
2013-11-28 21:09:00,18.3,16.1,30.58,WSW,252,0.0,0.0,91,0.00,,---,0.00,VWS V13.01,2013-11-29 02:09:00,
2013-11-28 21:14:00,18.2,16.0,30.58,WSW,252,0.0,0.0,91,0.00,,---,0.00,VWS V13.01,2013-11-29 02:14:00,
2013-11-28 21:19:00,18.2,16.0,30.58,WSW,252,0.0,0.0,91,0.00,,---,0.00,VWS V13.01,2013-11-29 02:19:00,
2013-11-28 21:24:00,18.4,16.5,30.58,WSW,252,0.0,0.0,92,0.00,,---,0.00,VWS V13.01,2013-11-29 02:24:00,
2013-11-28 21:29:00,18.5,16.3,30.58,WSW,252,0.0,0.0,91,0.00,,---,0.00,VWS V13.01,2013-11-29 02:29:00,
2013-11-28 21:34:00,18.3,16.1,30.58,WSW,252,0.0,0.0,91,0.00,,---,0.00,VWS V13.01,2013-11-29 02:34:00,
2013-11-28 21:39:00,18.2,16.0,30.58,WSW,252,0.0,0.0,91,0.00,,---,0.00,VWS V13.01,2013-11-29 02:39:00,
2013-11-28 21:44:00,18.2,16.0,30.58,WSW,252,0.0,0.0,91,0.00,,---,0.00,VWS V13.01,2013-11-29 02:44:00,
2013-11-28 21:49:00,18.2,16.0,30.58,WSW,252,0.0,0.0,91,0.00,,---,0.00,VWS V13.01,2013-11-29 02:49:00,
2013-11-28 21:54:00,18.0,15.8,30.58,WSW,252,0.0,0.0,91,0.00,,---,0.00,VWS V13.01,2013-11-29 02:54:00,
2013-11-28 22:00:00,17.9,15.7,30.58,WSW,252,0.0,0.0,91,0.00,,---,0.00,VWS V13.01,2013-11-29 03:00:00,
2013-11-28 22:05:00,17.7,15.5,30.58,WSW,252,0.0,0.0,91,0.00,,---,0.00,VWS V13.01,2013-11-29 03:05:00,
2013-11-28 22:10:00,17.6,15.4,30.58,WSW,252,0.0,0.0,91,0.00,,---,0.00,VWS V13.01,2013-11-29 03:10:00,
2013-11-28 22:15:00,17.6,15.4,30.58,WSW,252,0.0,0.0,91,0.00,,---,0.00,VWS V13.01,2013-11-29 03:15:00,
2013-11-28 22:20:00,17.5,15.6,30.58,WSW,252,0.0,0.0,92,0.00,,---,0.00,VWS V13.01,2013-11-29 03:20:00,
2013-11-28 22:25:00,17.5,15.6,30.58,WSW,252,0.0,0.0,92,0.00,,---,0.00,VWS V13.01,2013-11-29 03:25:00,
2013-11-28 22:30:00,17.5,15.6,30.58,WSW,252,0.0,0.0,92,0.00,,---,0.00,VWS V13.01,2013-11-29 03:30:00,
2013-11-28 22:35:00,17.8,15.9,30.58,WSW,252,0.0,0.0,92,0.00,,---,0.00,VWS V13.01,2013-11-29 03:35:00,
2013-11-28 22:40:00,17.7,15.8,30.58,WSW,252,0.0,0.0,92,0.00,,---,0.00,VWS V13.01,2013-11-29 03:40:00,
2013-11-28 22:45:00,17.6,15.7,30.58,WSW,252,0.0,0.0,92,0.00,,---,0.00,VWS V13.01,2013-11-29 03:45:00,
2013-11-28 22:50:00,17.7,15.8,30.58,WSW,252,0.0,0.0,92,0.00,,---,0.00,VWS V13.01,2013-11-29 03:50:00,
2013-11-28 22:55:00,17.7,15.8,30.58,WSW,252,0.0,0.0,92,0.00,,---,0.00,VWS V13.01,2013-11-29 03:55:00,
2013-11-28 23:00:00,17.7,15.8,30.58,WSW,252,0.0,0.0,92,0.00,,---,0.00,VWS V13.01,2013-11-29 04:00:00,
2013-11-28 23:05:00,18.0,16.1,30.58,WSW,252,0.0,0.0,92,0.00,,---,0.00,VWS V13.01,2013-11-29 04:05:00,
2013-11-28 23:10:00,18.4,16.7,30.58,WSW,252,0.0,0.0,93,0.00,,---,0.00,VWS V13.01,2013-11-29 04:10:00,
2013-11-28 23:16:00,18.4,16.5,30.58,WSW,252,0.0,0.0,92,0.00,,---,0.00,VWS V13.01,2013-11-29 04:16:00,
2013-11-28 23:21:00,18.3,16.4,30.59,WSW,252,0.0,0.0,92,0.00,,---,0.00,VWS V13.01,2013-11-29 04:21:00,
2013-11-28 23:26:00,17.9,16.0,30.59,WSW,252,0.0,0.0,92,0.00,,---,0.00,VWS V13.01,2013-11-29 04:26:00,
2013-11-28 23:31:00,17.8,15.9,30.59,WSW,252,0.0,0.0,92,0.00,,---,0.00,VWS V13.01,2013-11-29 04:31:00,
2013-11-28 23:36:00,17.8,15.9,30.59,WSW,252,0.0,0.0,92,0.00,,---,0.00,VWS V13.01,2013-11-29 04:36:00,
2013-11-28 23:41:00,18.1,16.4,30.59,WSW,252,0.0,0.0,93,0.00,,---,0.00,VWS V13.01,2013-11-29 04:41:00,
2013-11-28 23:47:00,18.2,16.5,30.59,WSW,252,0.0,0.0,93,0.00,,---,0.00,VWS V13.01,2013-11-29 04:47:00,
2013-11-28 23:52:00,18.3,16.4,30.60,WSW,252,0.0,0.0,92,0.00,,---,0.00,VWS V13.01,2013-11-29 04:52:00,
2013-11-28 23:57:00,18.2,16.3,30.60,WSW,252,0.0,0.0,92,0.00,,---,0.00,VWS V13.01,2013-11-29 04:57:00,